| time (UTC) | temp F | wind direction | speed knots | gust knots | rain 1hr in | rain 24hr in | rain mn in | humidity % | barometer mb |
| 20260902024123 | 87 | 181 | 2.6 | 2.6 | 0.00 | 0.00 | 0.00 | 25 | 1013.8 |
| 20260902023109 | 87 | 188 | 2.6 | 4.3 | 0.00 | 0.00 | 0.00 | 24 | 1013.6 |
| 20260902021210 | 88 | 205 | 4.3 | 9.6 | 0.00 | 0.00 | 0.00 | 22 | 1013.7 |
| 20260902020308 | 89 | 192 | 4.3 | 6.1 | 0.00 | 0.00 | 0.00 | 23 | 1013.6 |
| 20260902013324 | 91 | 205 | 5.2 | 8.7 | 0.00 | 0.00 | 0.00 | 20 | 1013.9 |
| 20260902012408 | 91 | 207 | 7.0 | 11.3 | 0.00 | 0.00 | 0.00 | 21 | 1013.8 |
| 20260902010409 | 92 | 210 | 7.0 | 10.4 | 0.00 | 0.00 | 0.00 | 20 | 1014.0 |
| 20260902005424 | 92 | 222 | 8.7 | 14.8 | 0.00 | 0.00 | 0.00 | 20 | 1014.0 |
| 20260902003410 | 92 | 221 | 9.6 | 13.9 | 0.00 | 0.00 | 0.00 | 19 | 1014.1 |
| 20260902002507 | 92 | 211 | 7.8 | 11.3 | 0.00 | 0.00 | 0.00 | 19 | 1013.9 |
| 20260902002409 | 92 | 216 | 7.8 | 12.2 | 0.00 | 0.00 | 0.00 | 20 | 1013.9 |
| 20260902001425 | 93 | 209 | 7.8 | 12.2 | 0.00 | 0.00 | 0.00 | 19 | 1014.0 |
| 20260902000509 | 93 | 214 | 9.6 | 14.8 | 0.00 | 0.00 | 0.00 | 20 | 1014.0 |
| 20260901235608 | 93 | 218 | 7.8 | 12.2 | 0.00 | 0.00 | 0.00 | 18 | 1014.0 |
| 20260901234610 | 93 | 228 | 9.6 | 13.9 | 0.00 | 0.00 | 0.00 | 18 | 1014.2 |
| 20260901233623 | 93 | 185 | 7.8 | 13.0 | 0.00 | 0.00 | 0.00 | 19 | 1014.1 |
| 20260901232625 | 93 | 222 | 6.1 | 11.3 | 0.00 | 0.00 | 0.00 | 18 | 1014.3 |
| 20260901231708 | 93 | 200 | 6.1 | 11.3 | 0.00 | 0.00 | 0.00 | 17 | 1014.3 |
| 20260901230710 | 94 | 218 | 8.7 | 14.8 | 0.00 | 0.00 | 0.00 | 16 | 1014.4 |
| 20260901224825 | 93 | 203 | 7.0 | 12.2 | 0.00 | 0.00 | 0.00 | 21 | 1014.4 |
| 20260901222908 | 92 | 249 | 7.8 | 13.0 | 0.00 | 0.00 | 0.00 | 24 | 1014.5 |
| 20260901222008 | 92 | 215 | 7.0 | 9.6 | 0.00 | 0.00 | 0.00 | 25 | 1014.5 |
| 20260901221007 | 91 | 242 | 8.7 | 12.2 | 0.00 | 0.00 | 0.00 | 27 | 1014.8 |
| 20260901220023 | 92 | 253 | 10.4 | 13.9 | 0.00 | 0.00 | 0.00 | 27 | 1014.4 |
| 20260901215921 | 92 | 268 | 9.6 | 19.1 | 0.00 | 0.00 | 0.00 | 27 | 1014.6 |
| 20260901214908 | 91 | 206 | 6.1 | 9.6 | 0.00 | 0.00 | 0.00 | 26 | 1014.9 |
| 20260901214808 | 91 | 206 | 7.8 | 11.3 | 0.00 | 0.00 | 0.00 | 27 | 1014.9 |
| 20260901213808 | 92 | 223 | 3.5 | 7.0 | 0.00 | 0.00 | 0.00 | 27 | 1015.2 |
| 20260901210825 | 91 | 224 | 7.0 | 10.4 | 0.00 | 0.00 | 0.00 | 27 | 1015.4 |
| 20260901205906 | 91 | 216 | 4.3 | 9.6 | 0.00 | 0.00 | 0.00 | 28 | 1015.5 |
| 20260901204909 | 92 | 219 | 7.8 | 10.4 | 0.00 | 0.00 | 0.00 | 28 | 1015.9 |
| 20260901203923 | 92 | 175 | 4.3 | 8.7 | 0.00 | 0.00 | 0.00 | 29 | 1016.0 |
| 20260901203008 | 91 | 155 | 2.6 | 4.3 | 0.00 | 0.00 | 0.00 | 30 | 1016.4 |
| 20260901200107 | 90 | 161 | 0.9 | 3.5 | 0.00 | 0.01 | 0.00 | 32 | 1016.7 |
| 20260901194108 | 91 | 164 | 4.3 | 7.8 | 0.00 | 0.02 | 0.00 | 31 | 1016.8 |
| 20260901193107 | 90 | 171 | 1.7 | 4.3 | 0.00 | 0.02 | 0.00 | 33 | 1017.0 |
| 20260901192110 | 91 | 184 | 0.9 | 4.3 | 0.00 | 0.02 | 0.00 | 32 | 1017.3 |
| 20260901192025 | 91 | 220 | 1.7 | 6.1 | 0.00 | 0.02 | 0.00 | 32 | 1017.0 |
| 20260901191123 | 90 | 360 | 0.0 | 1.7 | 0.00 | 0.02 | 0.00 | 34 | 1017.3 |
| 20260901190110 | 88 | 267 | 0.0 | 1.7 | 0.00 | 0.03 | 0.00 | 36 | 1017.3 |
| 20260901185206 | 90 | 328 | 1.7 | 5.2 | 0.00 | 0.04 | 0.00 | 34 | 1017.7 |
| 20260901184211 | 88 | 150 | 0.0 | 1.7 | 0.00 | 0.04 | 0.00 | 37 | 1017.8 |
| 20260901183227 | 87 | 294 | 1.7 | 3.5 | 0.00 | 0.06 | 0.00 | 38 | 1017.9 |
| 20260901182225 | 88 | 336 | 0.9 | 3.5 | 0.00 | 0.21 | 0.00 | 38 | 1018.1 |
| 20260901181208 | 88 | 67 | 2.6 | 4.3 | 0.00 | 0.21 | 0.00 | 38 | 1018.1 |
| 20260901181125 | 88 | 47 | 0.9 | 3.5 | 0.00 | 0.21 | 0.00 | 38 | 1018.3 |
| 20260901180026 | 87 | 202 | 0.9 | 2.6 | 0.00 | 0.21 | 0.00 | 39 | 1018.4 |
| 20260901175007 | 86 | 114 | 0.9 | 2.6 | 0.00 | 0.21 | 0.00 | 40 | 1018.5 |
| 20260901174008 | 85 | 142 | 2.6 | 5.2 | 0.00 | 0.21 | 0.00 | 41 | 1018.5 |
| 20260901173022 | 86 | 61 | 2.6 | 6.1 | 0.00 | 0.21 | 0.00 | 42 | 1018.5 |
| 20260901172007 | 84 | 177 | 1.7 | 2.6 | 0.00 | 0.21 | 0.00 | 44 | 1018.6 |
| 20260901171007 | 84 | 136 | 0.9 | 1.7 | 0.00 | 0.21 | 0.00 | 44 | 1018.7 |
| 20260901170022 | 83 | 339 | 0.0 | 0.9 | 0.00 | 0.21 | 0.00 | 45 | 1018.7 |
| 20260901165109 | 82 | 157 | 0.0 | 2.6 | 0.00 | 0.21 | 0.00 | 46 | 1018.8 |
| 20260901164107 | 81 | 286 | 2.6 | 4.3 | 0.00 | 0.21 | 0.00 | 48 | 1018.9 |
| 20260901163123 | 79 | 180 | 0.0 | 0.0 | 0.00 | 0.21 | 0.00 | 50 | 1018.8 |
| 20260901162109 | 78 | 202 | 1.7 | 2.6 | 0.00 | 0.21 | 0.00 | 52 | 1018.9 |
| 20260901160123 | 76 | 220 | 2.6 | 3.5 | 0.00 | 0.21 | 0.00 | 55 | 1019.0 |
| 20260901155209 | 75 | 202 | 2.6 | 4.3 | 0.00 | 0.21 | 0.00 | 56 | 1018.9 |
| 20260901154307 | 75 | 157 | 0.9 | 0.9 | 0.00 | 0.21 | 0.00 | 57 | 1018.9 |
| 20260901153406 | 75 | 157 | 1.7 | 2.6 | 0.00 | 0.21 | 0.00 | 56 | 1019.1 |
| 20260901152423 | 76 | 202 | 2.6 | 3.5 | 0.00 | 0.21 | 0.00 | 54 | 1019.2 |
| 20260901150423 | 75 | 180 | 1.7 | 2.6 | 0.00 | 0.21 | 0.00 | 57 | 1019.2 |
| 20260901145408 | 74 | 202 | 0.0 | 0.9 | 0.00 | 0.21 | 0.00 | 58 | 1019.2 |
| 20260901144505 | 74 | 315 | 0.0 | 0.0 | 0.00 | 0.21 | 0.00 | 59 | 1019.2 |
| 20260901143509 | 72 | 315 | 0.0 | 0.0 | 0.00 | 0.21 | 0.00 | 62 | 1019.2 |
| 20260901142523 | 70 | 315 | 0.0 | 0.0 | 0.00 | 0.21 | 0.00 | 65 | 1019.2 |
| 20260901141608 | 71 | 2 | 0.0 | 2.6 | 0.00 | 0.21 | 0.00 | 63 | 1019.2 |
| 20260901140626 | 69 | 360 | 0.9 | 0.9 | 0.00 | 0.21 | 0.00 | 67 | 1019.3 |
| 20260901134708 | 67 | 337 | 0.0 | 0.0 | 0.00 | 0.21 | 0.00 | 72 | 1019.4 |
| 20260901133722 | 65 | 337 | 0.9 | 0.9 | 0.00 | 0.21 | 0.00 | 74 | 1019.2 |
| 20260901132809 | 65 | 337 | 0.0 | 0.9 | 0.00 | 0.21 | 0.00 | 76 | 1019.1 |
| 20260901132707 | 65 | 337 | 0.0 | 0.9 | 0.00 | 0.21 | 0.00 | 76 | 1019.2 |
| 20260901131707 | 65 | 337 | 1.7 | 1.7 | 0.00 | 0.21 | 0.00 | 74 | 1019.0 |
| 20260901130709 | 65 | 295 | 0.0 | 1.7 | 0.00 | 0.21 | 0.00 | 74 | 1019.0 |
| 20260901125723 | 65 | 270 | 0.0 | 0.0 | 0.00 | 0.21 | 0.00 | 73 | 1019.0 |
| 20260901124822 | 65 | 270 | 0.0 | 0.0 | 0.00 | 0.21 | 0.00 | 73 | 1018.9 |
| 20260901122923 | 65 | 315 | 1.7 | 2.6 | 0.00 | 0.21 | 0.00 | 73 | 1018.9 |
| 20260901122022 | 65 | 315 | 0.0 | 0.0 | 0.00 | 0.21 | 0.00 | 74 | 1019.0 |
| 20260901121008 | 65 | 315 | 0.0 | 0.0 | 0.00 | 0.21 | 0.00 | 73 | 1019.0 |
| 20260901120107 | 65 | 315 | 0.0 | 0.0 | 0.00 | 0.21 | 0.00 | 74 | 1019.0 |
| 20260901115107 | 65 | 315 | 0.0 | 0.0 | 0.00 | 0.21 | 0.00 | 74 | 1019.0 |
| 20260901114107 | 66 | 315 | 0.0 | 0.0 | 0.00 | 0.21 | 0.00 | 72 | 1019.1 |
| 20260901114022 | 66 | 315 | 0.0 | 0.0 | 0.00 | 0.21 | 0.00 | 73 | 1019.0 |
| 20260901113006 | 66 | 315 | 0.0 | 0.0 | 0.00 | 0.21 | 0.00 | 71 | 1019.0 |
| 20260901112007 | 66 | 315 | 1.7 | 2.6 | 0.00 | 0.21 | 0.00 | 71 | 1019.0 |
| 20260901111106 | 66 | 337 | 0.0 | 0.9 | 0.00 | 0.21 | 0.00 | 72 | 1019.1 |
| 20260901105208 | 66 | 337 | 0.9 | 1.7 | 0.00 | 0.21 | 0.00 | 71 | 1018.9 |
| 20260901104306 | 66 | 247 | 0.0 | 0.0 | 0.00 | 0.21 | 0.00 | 70 | 1018.8 |
| 20260901102406 | 67 | 292 | 0.0 | 0.0 | 0.00 | 0.21 | 0.00 | 69 | 1018.8 |
| 20260901101408 | 67 | 292 | 0.0 | 0.0 | 0.00 | 0.21 | 0.00 | 70 | 1019.0 |
| 20260901101322 | 67 | 292 | 0.0 | 0.0 | 0.00 | 0.21 | 0.00 | 69 | 1019.0 |
| 20260901100308 | 67 | 360 | 0.0 | 0.0 | 0.00 | 0.21 | 0.00 | 70 | 1018.9 |
| 20260901095407 | 67 | 15 | 0.9 | 1.7 | 0.00 | 0.21 | 0.00 | 70 | 1019.0 |
| 20260901094406 | 66 | 337 | 0.9 | 1.7 | 0.00 | 0.21 | 0.00 | 70 | 1018.9 |
| 20260901093421 | 67 | 360 | 0.0 | 0.0 | 0.00 | 0.21 | 0.00 | 69 | 1019.1 |
| 20260901092505 | 67 | 360 | 0.0 | 0.0 | 0.00 | 0.21 | 0.00 | 70 | 1019.0 |
| 20260901090606 | 67 | 360 | 0.9 | 1.7 | 0.00 | 0.21 | 0.00 | 70 | 1019.1 |
| 20260901085621 | 67 | 360 | 0.0 | 0.0 | 0.00 | 0.21 | 0.00 | 70 | 1019.2 |
| 20260901084706 | 67 | 360 | 0.0 | 0.0 | 0.00 | 0.21 | 0.00 | 69 | 1019.3 |
| 20260901084623 | 67 | 360 | 0.0 | 0.0 | 0.00 | 0.21 | 0.00 | 68 | 1019.3 |
| 20260901083624 | 67 | 360 | 0.0 | 0.0 | 0.00 | 0.21 | 0.00 | 67 | 1019.3 |
| 20260901082721 | 68 | 360 | 0.0 | 0.0 | 0.00 | 0.21 | 0.00 | 66 | 1019.4 |
| 20260901081722 | 68 | 360 | 0.9 | 1.7 | 0.00 | 0.21 | 0.00 | 66 | 1019.4 |
| 20260901080621 | 69 | 270 | 0.0 | 0.0 | 0.00 | 0.21 | 0.00 | 64 | 1019.4 |
| 20260901075707 | 69 | 270 | 0.0 | 0.0 | 0.00 | 0.21 | 0.00 | 63 | 1019.3 |
| 20260901074722 | 69 | 270 | 0.0 | 0.0 | 0.00 | 0.21 | 0.00 | 62 | 1019.3 |
| 20260901073706 | 70 | 270 | 0.0 | 0.9 | 0.00 | 0.21 | 0.00 | 59 | 1019.4 |
| 20260901072706 | 71 | 270 | 0.0 | 0.0 | 0.00 | 0.21 | 0.00 | 57 | 1019.4 |
| 20260901071804 | 72 | 122 | 1.7 | 2.6 | 0.00 | 0.21 | 0.00 | 54 | 1019.4 |
| 20260901070807 | 72 | 90 | 1.7 | 3.5 | 0.00 | 0.21 | 0.00 | 54 | 1019.2 |
| 20260901065905 | 73 | 135 | 0.0 | 1.7 | 0.00 | 0.21 | 0.00 | 53 | 1019.1 |
| 20260901064907 | 72 | 99 | 2.6 | 4.3 | 0.00 | 0.21 | 0.00 | 54 | 1019.0 |
| 20260901064005 | 70 | 112 | 0.9 | 3.5 | 0.00 | 0.21 | 0.00 | 58 | 1018.9 |
| 20260901063006 | 70 | 112 | 0.0 | 0.0 | 0.00 | 0.21 | 0.00 | 59 | 1018.9 |
| 20260901062006 | 70 | 180 | 0.0 | 0.0 | 0.00 | 0.21 | 0.00 | 58 | 1019.2 |
| 20260901061008 | 70 | 180 | 0.0 | 0.0 | 0.00 | 0.21 | 0.00 | 58 | 1018.8 |
| 20260901060021 | 70 | 202 | 0.0 | 0.0 | 0.00 | 0.21 | 0.00 | 57 | 1018.8 |
| 20260901055004 | 70 | 45 | 0.9 | 1.7 | 0.00 | 0.21 | 0.21 | 56 | 1018.7 |
| 20260901054021 | 70 | 337 | 0.0 | 0.0 | 0.00 | 0.21 | 0.21 | 56 | 1018.9 |
| 20260901052004 | 70 | 22 | 0.9 | 1.7 | 0.00 | 0.21 | 0.21 | 56 | 1018.9 |
| 20260901051020 | 70 | 28 | 2.6 | 3.5 | 0.00 | 0.21 | 0.21 | 56 | 1018.8 |
| 20260901050006 | 71 | 337 | 0.9 | 1.7 | 0.00 | 0.21 | 0.21 | 56 | 1018.8 |
| 20260901044021 | 71 | 347 | 1.7 | 3.5 | 0.00 | 0.21 | 0.21 | 55 | 1018.7 |
| 20260901043022 | 71 | 67 | 0.0 | 0.0 | 0.00 | 0.21 | 0.21 | 54 | 1018.5 |
| 20260901042106 | 72 | 133 | 0.9 | 1.7 | 0.00 | 0.21 | 0.21 | 53 | 1018.7 |
| 20260901041120 | 71 | 45 | 0.0 | 0.0 | 0.00 | 0.21 | 0.21 | 54 | 1018.5 |
| 20260901040205 | 71 | 157 | 0.0 | 0.0 | 0.00 | 0.21 | 0.21 | 54 | 1018.6 |
| 20260901040105 | 71 | 157 | 0.0 | 0.0 | 0.00 | 0.21 | 0.21 | 53 | 1018.6 |
| 20260901035105 | 72 | 247 | 5.2 | 5.2 | 0.00 | 0.21 | 0.21 | 53 | 1018.1 |
| 20260901034108 | 72 | 264 | 6.1 | 9.6 | 0.00 | 0.21 | 0.21 | 54 | 1018.0 |
| 20260901033107 | 73 | 297 | 1.7 | 3.5 | 0.00 | 0.21 | 0.21 | 54 | 1017.7 |
| 20260901032205 | 73 | 253 | 4.3 | 7.8 | 0.00 | 0.21 | 0.21 | 53 | 1017.3 |
| 20260901030206 | 74 | 307 | 1.7 | 4.3 | 0.00 | 0.21 | 0.21 | 54 | 1017.1 |
| 20260901025306 | 75 | 270 | 0.0 | 0.0 | 0.00 | 0.21 | 0.21 | 55 | 1016.7 |
| 20260901024309 | 76 | 277 | 5.2 | 9.6 | 0.00 | 0.21 | 0.21 | 50 | 1016.3 |